CW8593 Gava ES current weather conditions

sailwx.info

Wind from 309

Air temperature 13.9° C
Dewpoint 9.9° C

Last reported at 2015-Apr-18 02:23 UTC.
Time now 2015-Apr-18 03:26 UTC

Location: N 41°18' E 001°60'.
View on Google Maps.

See reports from other nearby stations

  
Tides and Currents Weather Stations Pressure Air Temp Water Temp Dewpoint Dewpoint Depression Visibility Wind Speed Wind Dir Waves Ship Positions
date/time (UTC)wind fromknots sea level pressurealtimeterstation pressurevisibilityair tempwater tempwave heightnotes
2015-Apr-18 02:23 309 13.9
2015-Apr-18 02:13 309 0 gusting 2 13.9
2015-Apr-18 02:03 309 13.9
2015-Apr-18 01:33 309 2 gusting 4 14.4
2015-Apr-18 01:23 309 0 gusting 6 14.4
2015-Apr-18 01:03 307 14.4
2015-Apr-18 00:53 304 0 gusting 5 14.4
2015-Apr-18 00:43 302 2 gusting 5 14.4
2015-Apr-18 00:33 294 14.4
2015-Apr-18 00:13 294 0 gusting 2 14.4
2015-Apr-18 00:03 294 1 gusting 6 14.4
2015-Apr-17 23:53 303 4 gusting 6 14.4
2015-Apr-17 23:43 312 2 gusting 4 14.4
2015-Apr-17 23:23 312 1 gusting 5 14.4
2015-Apr-17 23:13 319 1 gusting 4 14.4
2015-Apr-17 23:03 331 14.4
2015-Apr-17 22:43 330 15.0
2015-Apr-17 22:23 331 1 gusting 2 15.0
2015-Apr-17 22:13 333 15.0
2015-Apr-17 22:03 333 1 gusting 2 15.0
2015-Apr-17 21:53 333 1 gusting 4 15.0
2015-Apr-17 21:23 038 15.0
2015-Apr-17 21:13 038 0 gusting 2 15.0
2015-Apr-17 21:03 038 0 gusting 2 14.4
2015-Apr-17 20:53 038 15.0
2015-Apr-17 20:43 105 0 gusting 2 15.0
2015-Apr-17 20:23 121 0 gusting 2 15.0
2015-Apr-17 20:03 125 15.0
2015-Apr-17 19:43 125 0 gusting 1 15.0
2015-Apr-17 19:23 124 15.6
2015-Apr-17 18:53 123 0 gusting 2 16.1
2015-Apr-17 18:43 123 1 gusting 2 16.1
2015-Apr-17 18:23 123 0 gusting 6 16.7
2015-Apr-17 18:13 129 1 gusting 2 17.2
2015-Apr-17 18:03 128 0 gusting 2 17.2
2015-Apr-17 17:53 128 0 gusting 2 17.2
2015-Apr-17 17:43 126 1 gusting 2 17.8
2015-Apr-17 17:23 122 1 gusting 4 17.8
2015-Apr-17 17:13 154 1 gusting 4 18.3
2015-Apr-17 17:03 148 1 gusting 5 17.8
2015-Apr-17 16:53 154 1 gusting 5 18.3
2015-Apr-17 16:23 136 1 gusting 5 18.3
2015-Apr-17 16:13 162 0 gusting 5 18.3
2015-Apr-17 15:53 183 2 gusting 5 18.3
2015-Apr-17 15:43 146 2 gusting 6 18.3
2015-Apr-17 15:23 130 2 gusting 7 17.8
2015-Apr-17 15:13 123 2 gusting 6 17.8
2015-Apr-17 14:53 141 3 gusting 6 17.8
2015-Apr-17 14:43 171 1 gusting 7 17.8
2015-Apr-17 14:33 152 5 gusting 10 17.8
2015-Apr-17 14:23 092 3 gusting 7 17.8
2015-Apr-17 14:13 065 4 gusting 7 18.3
2015-Apr-17 14:03 140 4 gusting 8 17.8
2015-Apr-17 13:53 159 3 gusting 7 17.8
2015-Apr-17 13:43 158 3 gusting 7 18.3
2015-Apr-17 13:23 130 4 gusting 8 17.8
2015-Apr-17 13:13 122 6 gusting 10 17.8
2015-Apr-17 12:53 133 6 gusting 8 17.8
2015-Apr-17 12:43 086 5 gusting 10 18.3
2015-Apr-17 12:23 120 6 gusting 10 18.3
2015-Apr-17 12:13 119 6 gusting 10 18.9
2015-Apr-17 11:53 140 4 gusting 8 19.4
2015-Apr-17 11:33 167 4 gusting 8 18.9
2015-Apr-17 10:53 137 5 gusting 8 20.0
2015-Apr-17 10:43 135 4 gusting 7 20.0
2015-Apr-17 10:23 176 5 gusting 7 20.0
2015-Apr-17 10:13 141 4 gusting 6 20.0
2015-Apr-17 09:53 148 2 gusting 6 19.4
2015-Apr-17 09:43 134 2 gusting 6 19.4
2015-Apr-17 09:23 166 4 gusting 7 18.9
2015-Apr-17 09:13 153 4 gusting 6 20.0
2015-Apr-17 08:53 355 5 gusting 10 20.0
2015-Apr-17 08:43 307 1 gusting 4 20.0
2015-Apr-17 08:33 015 0 gusting 6 19.4
2015-Apr-17 08:13 319 3 gusting 6 18.3
2015-Apr-17 08:03 049 0 gusting 6 17.8
2015-Apr-17 07:53 049 1 gusting 6 17.8
2015-Apr-17 07:33 040 2 gusting 5 17.2
2015-Apr-17 07:23 022 1 gusting 6 16.7
2015-Apr-17 06:53 310 15.6
2015-Apr-17 06:43 311 0 gusting 2 15.0
2015-Apr-17 06:13 302 13.9
2015-Apr-17 05:43 302 12.2
2015-Apr-17 05:33 302 12.2
2015-Apr-17 05:23 302 12.2
2015-Apr-17 05:13 302 12.2
2015-Apr-17 05:03 302 12.2
2015-Apr-17 04:43 302 12.8
2015-Apr-17 04:23 302 12.8
2015-Apr-17 04:13 302 1 gusting 2 12.8
2015-Apr-17 04:03 302 0 gusting 2 12.8
2015-Apr-17 03:53 302 0 gusting 2 12.2
2015-Apr-17 03:43 302 1 gusting 2 12.2
2015-Apr-17 03:33 302 0 gusting 2 12.8
2015-Apr-17 03:13 302 12.8
2015-Apr-17 03:03 324 0 gusting 2 12.8
2015-Apr-17 02:53 324 12.8
2015-Apr-17 02:43 324 12.8
2015-Apr-17 02:33 324 1 gusting 2 12.8
2015-Apr-17 01:43 252 12.8
2015-Apr-17 01:33 252 12.8
2015-Apr-17 01:23 252 12.8
2015-Apr-17 01:13 252 13.3
2015-Apr-17 01:03 252 13.3
2015-Apr-17 00:53 252 13.3
2015-Apr-17 00:43 252 1 gusting 4 12.8
2015-Apr-17 00:33 252 0 gusting 2 13.3
2015-Apr-17 00:13 252 13.9
2015-Apr-17 00:03 252 13.9
2015-Apr-16 23:43 252 13.9
2015-Apr-16 23:33 252 13.9
2015-Apr-16 23:23 252 14.4
2015-Apr-16 23:13 252 1 gusting 2 13.9
2015-Apr-16 23:03 252 2 gusting 2 14.4
2015-Apr-16 22:53 252 14.4
2015-Apr-16 22:33 248 0 gusting 2 15.0
2015-Apr-16 22:23 249 1 gusting 2 15.0
2015-Apr-16 22:13 249 0 gusting 2 15.0
2015-Apr-16 22:03 249 0 gusting 2 14.4
2015-Apr-16 21:43 249 14.4
2015-Apr-16 21:23 248 1 gusting 2 14.4
2015-Apr-16 21:13 248 15.0
2015-Apr-16 21:03 213 14.4
2015-Apr-16 20:53 213 14.4
2015-Apr-16 20:43 213 14.4
2015-Apr-16 20:23 213 1 gusting 2 14.4
2015-Apr-16 20:13 213 0 gusting 2 14.4
2015-Apr-16 20:03 213 14.4
2015-Apr-16 19:53 213 15.0
2015-Apr-16 19:33 213 0 gusting 2 15.0
2015-Apr-16 19:13 213 0 gusting 6 15.6
2015-Apr-16 19:03 199 0 gusting 2 15.6
2015-Apr-16 18:53 199 4 gusting 6 15.6
2015-Apr-16 18:43 232 2 gusting 5 15.6
2015-Apr-16 18:33 227 0 gusting 6 15.6
2015-Apr-16 18:23 238 2 gusting 6 15.6
2015-Apr-16 18:13 217 2 gusting 6 15.6
2015-Apr-16 18:03 182 1 gusting 5 15.6
2015-Apr-16 17:53 163 2 gusting 4 15.6
2015-Apr-16 17:43 179 1 gusting 6 15.6
2015-Apr-16 17:33 196 1 gusting 10 16.1
2015-Apr-16 17:23 182 7 gusting 13 16.1
2015-Apr-16 17:03 178 6 gusting 13 16.7
2015-Apr-16 16:33 225 5 gusting 8 16.7
2015-Apr-16 16:23 186 6 gusting 10 16.7
2015-Apr-16 16:03 169 1 gusting 8 17.2
2015-Apr-16 15:53 187 6 gusting 8 17.2
2015-Apr-16 15:43 166 5 gusting 10 17.2
2015-Apr-16 15:23 166 3 gusting 8 17.8
2015-Apr-16 15:13 136 5 gusting 7 17.8
2015-Apr-16 14:53 132 0 gusting 5 17.8
2015-Apr-16 14:43 179 0 gusting 4 17.2
2015-Apr-16 14:23 187 1 gusting 8 17.2
2015-Apr-16 14:13 117 2 gusting 8 17.2
2015-Apr-16 14:03 152 4 gusting 6 17.2
2015-Apr-16 13:53 123 2 gusting 7 17.2
2015-Apr-16 13:33 125 4 gusting 7 17.8
2015-Apr-16 13:13 122 1 gusting 6 17.8
2015-Apr-16 12:43 145 0 gusting 6 17.8
2015-Apr-16 12:23 118 1 gusting 6 17.8
2015-Apr-16 12:13 091 17.2
2015-Apr-16 11:53 095 1 gusting 5 16.1
2015-Apr-16 11:43 094 0 gusting 4 16.1
2015-Apr-16 11:33 110 0 gusting 2 16.1
2015-Apr-16 11:13 134 0 gusting 2 15.6
2015-Apr-16 10:53 138 2 gusting 10 16.7
2015-Apr-16 10:43 149 4 gusting 6 17.2
2015-Apr-16 10:33 126 1 gusting 6 17.8
2015-Apr-16 10:13 152 2 gusting 5 17.8
2015-Apr-16 10:03 119 1 gusting 4 18.3
2015-Apr-16 09:53 112 1 gusting 4 18.3
2015-Apr-16 09:43 066 0 gusting 4 17.8
2015-Apr-16 09:33 094 1 gusting 5 17.8
2015-Apr-16 09:23 082 0 gusting 5 17.8
2015-Apr-16 09:13 086 1 gusting 6 17.8
2015-Apr-16 09:03 096 2 gusting 6 17.8
2015-Apr-16 08:43 084 0 gusting 5 17.2
2015-Apr-16 08:23 084 2 gusting 5 16.7
2015-Apr-16 08:03 054 1 gusting 2 16.7
2015-Apr-16 07:43 355 16.1
2015-Apr-16 07:13 355 1 gusting 5 15.6
2015-Apr-16 07:03 355 0 gusting 4 15.6
2015-Apr-16 06:43 355 15.0
2015-Apr-16 06:33 355 15.0
2015-Apr-16 06:13 355 15.0
2015-Apr-16 06:03 355 14.4
2015-Apr-16 05:53 355 0 gusting 1 15.0
2015-Apr-16 05:33 355 4 gusting 2 17.2
2015-Apr-16 05:23 009 4 gusting 2 17.8
2015-Apr-16 05:13 009 4 gusting 2 17.8
2015-Apr-16 05:03 009 4 gusting 2 17.8
2015-Apr-16 04:53 009 4 gusting 2 17.8
2015-Apr-16 04:43 009 4 gusting 2 17.8
2015-Apr-16 04:33 009 4 gusting 2 17.8
2015-Apr-16 04:23 009 4 gusting 2 17.8
2015-Apr-16 04:13 009 4 gusting 2 17.8
2015-Apr-16 03:43 009 4 gusting 2 17.8
2015-Apr-16 03:13 009 4 gusting 2 17.8